{"data":{"norad_id":69117,"epoch":"2026-09-20T03:17:46.564800Z","epoch_age_seconds":54515,"freshness":"FRESH","line1":"1 69117U 26108P   26263.13734450  .00000107  00000+0  14792-3 0  9990","line2":"2 69117  89.0191  12.5101 0001872 106.6424 253.4933 13.51024010 17290","mean_motion":13.5102401,"eccentricity":0.0001872,"inclination_deg":89.0191,"raan_deg":12.5101,"arg_perigee_deg":106.6424,"mean_anomaly_deg":253.4933,"bstar":0.00014792,"rev_number":1729,"period_min":106.58581855995,"perigee_km":1067.0993485242,"apogee_km":1069.8873669301,"semimajor_km":7446.6303577271,"source":"CELESTRAK","updated_at":"2026-09-20T09:00:24.682503Z"}}